Wind_Speed
9 8 7 6 6 6 5 5 5 6 6 6 6 6 6 6 6 6 6 6 6 6 5 5 5 5 5 5 6 5 5 5 5 5 5 5 5 5 5 5 4 4 4 4
10 9 8 7 7 7 6 6 6 6 6 6 6 6 6 6 6 6 6 6 6 6 6 5 4 5 5 6 6 5 5 5 5 5 5 5 5 6 6 6 5 5 5 4
11 10 9 9 8 8 7 7 6 6 6 6 6 6 6 6 6 6 7 7 7 7 6 5 5 5 6 6 6 5 5 6 5 5 5 5 5 6 6 5 5 5 5 4
13 11 10 10 10 9 8 8 8 7 7 6 6 6 6 6 6 6 7 7 7 7 6 6 6 6 6 6 6 6 6 5 5 5 5 5 6 6 6 6 5 5 5 4
14 13 12 11 11 10 10 9 9 8 7 7 6 6 5 6 6 6 6 7 7 7 6 6 6 7 7 6 6 6 6 5 6 6 6 6 5 5 5 5 5 5 4 4
16 14 13 12 12 11 11 10 10 9 8 7 7 6 6 6 7 6 6 6 7 6 6 7 7 7 7 7 6 7 7 6 6 6 6 6 6 5 5 5 5 5 4 4
17 16 15 14 13 12 11 11 10 10 9 9 8 7 6 7 7 7 7 7 7 7 7 8 7 7 7 8 8 7 7 7 7 7 6 6 6 6 5 5 5 5 5 5
18 18 16 15 15 14 12 12 11 11 11 10 9 8 7 7 7 7 8 8 8 8 8 8 8 8 8 8 8 8 8 7 7 7 7 7 6 6 6 6 5 5 5 5
19 19 17 17 16 15 14 13 13 13 12 11 10 9 9 8 8 8 8 8 8 9 9 9 10 10 9 9 9 9 9 8 8 7 7 7 7 7 6 6 6 6 5 5
20 20 19 18 17 17 16 15 15 14 14 13 12 11 10 9 9 8 8 8 9 9 9 9 10 10 10 10 10 10 10 10 9 9 8 8 8 7 7 7 7 6 6 6
22 22 21 20 19 18 17 17 17 16 15 14 13 13 11 11 10 10 10 10 10 10 10 10 11 11 11 11 11 11 11 11 10 10 10 10 9 8 8 8 8 8 7 7
23 23 22 21 20 20 20 19 18 18 17 16 16 15 13 13 12 12 12 11 11 12 12 12 13 12 11 12 12 12 12 12 12 11 11 11 10 10 9 8 8 9 8 8
24 24 24 23 23 22 21 21 20 20 19 18 18 17 14 14 14 13 13 13 13 13 13 14 14 14 13 13 13 13 13 13 13 13 13 13 12 11 11 10 10 10 9 9
25 25 25 25 24 23 23 22 22 21 21 20 19 18 16 16 16 15 15 15 15 15 15 15 15 15 15 15 15 15 15 15 14 14 14 14 13 13 12 12 11 11 11 10
26 26 26 26 26 25 24 23 23 23 22 22 20 20 18 17 17 17 17 16 16 16 16 16 16 16 16 16 16 16 16 16 16 16 15 15 14 14 14 14 13 13 13 12
27 27 27 27 27 26 26 25 25 25 24 23 22 21 20 19 19 19 18 18 17 17 17 17 17 17 17 17 17 17 17 17 17 17 16 16 15 15 15 15 15 14 14 14
28 28 28 28 28 28 27 26 26 26 26 25 24 22 22 21 21 20 20 19 19 18 18 18 18 17 17 17 18 18 18 18 17 17 17 17 17 16 16 17 16 16 15 15
29 28 29 30 29 29 28 27 27 26 26 26 25 24 23 23 22 22 21 21 20 19 19 19 19 19 19 18 18 18 19 18 18 17 17 17 17 17 17 18 17 17 17 17
30 30 31 31 31 30 29 27 26 26 26 26 26 24 24 24 24 23 23 22 21 20 20 20 20 20 21 20 20 20 19 19 19 19 18 18 18 18 18 18 18 19 19 19
30 31 32 32 32 31 30 28 27 27 27 26 25 25 25 25 25 24 24 24 23 22 22 22 22 22 22 22 22 21 20 20 20 21 21 20 19 19 19 19 20 20 20 20
30 31 32 32 33 32 31 28 27 28 27 26 26 26 26 26 25 25 25 25 25 24 24 24 23 23 22 23 23 22 22 21 21 21 21 20 20 20 20 20 20 20 20 20
31 31 32 33 34 32 31 30 29 29 28 27 27 27 27 26 26 26 26 26 26 26 26 25 24 24 24 24 23 23 22 22 22 21 21 20 20 20 20 20 20 20 20 20
32 32 32 33 34 33 32 31 30 30 29 28 28 28 28 28 27 27 27 26 27 27 27 26 25 25 25 24 24 23 23 23 23 23 22 21 21 21 21 20 20 20 20 20
32 33 33 33 33 33 32 31 31 30 30 29 29 29 29 29 28 28 27 27 28 28 27 26 25 25 25 24 24 24 23 23 23 23 22 22 21 21 21 21 20 20 20 21
32 33 33 33 33 33 32 31 30 30 30 31 31 30 30 30 29 29 28 28 28 27 27 27 26 25 25 25 25 24 24 23 23 23 23 23 22 22 21 21 21 20 20 21
31 32 32 32 32 33 32 32 31 32 32 32 32 31 31 30 29 29 28 28 28 28 28 28 27 26 26 26 26 25 24 24 24 24 24 23 22 22 22 21 20 20 20 20
Wind_Direction
247 250 256 261 266 273 276 292 302 306 311 316 319 322 323 326 327 327 326 325 322 313 312 304 298 303 306 306 304 302 302 301 297 292 290 286 283 285 288 290 286 283 286 285
246 248 251 255 261 269 273 282 293 300 307 311 314 317 319 322 323 322 322 323 321 317 309 309 302 300 305 299 300 301 296 297 300 302 300 292 285 286 286 285 283 282 287 288
246 249 251 254 258 265 272 274 283 292 302 308 309 309 314 318 317 319 320 322 325 319 315 303 306 307 308 304 302 306 303 298 293 300 303 295 286 282 281 281 285 281 279 281
244 247 251 254 256 262 271 273 277 283 291 300 307 304 309 312 313 315 318 318 318 313 309 307 302 303 306 306 306 306 306 301 296 298 303 299 289 281 277 279 283 280 273 269
244 246 249 253 256 262 269 273 275 279 284 293 301 299 303 305 308 310 313 315 313 308 302 300 295 293 296 299 305 307 305 301 298 299 301 298 289 281 277 276 278 275 269 263
243 244 246 251 255 259 266 272 273 275 279 284 290 291 291 293 301 303 304 309 312 307 299 295 293 290 290 292 298 300 300 300 299 298 301 297 286 278 276 279 276 269 260 258
242 243 245 248 252 256 263 269 272 274 276 279 281 282 288 287 294 296 296 299 303 306 301 294 288 286 288 290 290 293 293 295 298 297 296 295 287 280 277 278 274 265 258 256
242 244 246 248 252 258 262 264 265 268 271 274 272 275 284 287 291 295 297 296 296 297 299 294 290 288 290 291 287 286 287 290 296 297 294 292 287 281 277 276 272 266 259 253
242 245 247 249 251 255 258 258 260 261 265 268 267 272 281 285 288 293 295 295 293 293 296 296 294 290 290 289 288 285 284 287 292 292 291 288 288 281 278 274 270 266 258 250
243 245 246 248 250 252 254 256 255 257 261 265 265 268 274 280 281 286 286 288 289 290 293 297 298 296 291 289 289 286 283 285 287 286 286 285 284 283 278 268 262 262 258 254
244 245 246 247 248 251 252 253 254 256 258 262 266 267 271 275 277 281 281 282 286 288 290 293 295 296 292 289 290 289 281 283 285 284 282 281 281 281 278 268 262 260 258 259
244 246 247 247 248 249 250 251 253 255 258 260 263 265 269 271 274 277 279 280 282 284 285 288 292 293 290 286 286 288 285 283 283 283 280 277 277 277 275 267 261 259 258 259
244 245 247 248 248 247 248 249 251 253 256 258 261 265 266 268 271 273 275 277 280 282 282 282 284 286 286 285 283 284 284 282 282 283 280 276 274 275 273 267 262 257 255 258
246 246 247 249 251 249 248 249 251 253 255 256 258 262 263 263 268 271 273 275 277 279 280 280 280 281 282 282 280 280 280 278 278 280 280 276 272 270 269 266 263 258 255 256
247 247 247 248 249 249 248 248 250 252 254 255 257 260 261 263 267 270 273 275 276 278 278 278 278 278 278 279 279 279 278 276 275 275 277 275 271 267 266 265 262 259 256 255
246 247 248 248 249 249 248 249 251 253 255 257 257 259 262 262 263 266 269 273 274 275 276 277 279 279 278 278 278 279 279 278 275 274 273 271 268 266 265 263 261 260 257 256
246 247 248 249 250 250 250 251 253 254 255 257 259 259 261 261 263 265 267 270 271 271 274 275 277 279 280 279 278 278 278 277 276 274 272 270 267 266 264 263 260 258 259 259
246 247 248 250 251 252 253 253 254 255 256 257 259 259 260 261 263 264 266 267 267 268 270 271 274 276 278 278 277 278 277 275 275 274 274 271 267 265 265 263 259 257 258 259
247 248 249 250 251 253 254 254 255 256 256 258 260 260 261 261 262 263 263 264 267 266 268 270 272 274 276 277 276 275 275 274 273 273 273 272 268 266 264 262 260 258 257 259
248 249 249 250 251 252 254 255 256 257 258 257 259 259 260 260 262 263 263 262 263 265 268 270 271 273 274 274 274 274 274 273 271 271 271 270 267 266 264 262 260 260 259 259
247 248 249 250 252 253 254 255 257 258 259 258 259 259 260 260 260 261 262 262 263 265 267 269 270 272 273 273 273 273 273 273 271 270 269 268 267 266 264 262 260 260 261 261
249 249 250 251 252 254 254 256 256 259 261 260 260 260 260 260 259 260 262 262 263 265 267 267 268 269 271 272 272 272 272 271 269 268 268 268 266 266 266 263 262 260 261 261
249 251 252 252 253 255 256 257 258 260 260 260 260 260 260 260 260 261 262 263 264 264 265 266 266 267 269 270 271 271 271 270 268 267 267 266 266 266 267 265 262 260 260 258
251 252 254 254 254 256 256 257 258 259 259 259 260 258 259 260 260 261 263 263 264 264 264 264 265 265 266 268 270 269 269 268 267 266 267 267 267 268 267 264 262 260 259 258
252 252 254 255 255 255 255 256 256 256 257 258 258 257 258 260 260 261 263 263 263 263 262 262 262 262 263 266 268 267 266 265 265 265 266 266 266 266 266 263 262 259 258 259
252 253 254 254 253 254 255 255 256 256 256 257 256 256 257 259 259 260 261 262 262 262 262 261 262 262 262 264 265 266 264 263 263 264 264 265 265 265 265 264 261 260 259 258
Height
5885 5886 5886 5887 5887 5887 5887 5886 5886 5885 5885 5884 5883 5882 5881 5880 5879 5878 5877 5876 5875 5874 5873 5873 5872 5871 5871 5870 5869 5868 5867 5866 5865 5865 5864 5864 5863 5863 5862 5861 5861 5860 5860 5859
5883 5884 5885 5884 5885 5885 5885 5885 5884 5884 5883 5883 5882 5881 5880 5879 5879 5878 5876 5875 5874 5873 5872 5872 5871 5871 5870 5869 5868 5867 5866 5866 5865 5864 5863 5863 5862 5862 5861 5860 5860 5859 5859 5858
5880 5882 5882 5882 5883 5883 5883 5883 5883 5882 5882 5881 5881 5881 5880 5879 5878 5877 5876 5874 5873 5872 5872 5871 5870 5870 5869 5868 5867 5866 5866 5865 5864 5863 5863 5862 5861 5860 5860 5859 5859 5858 5857 5857
5877 5878 5879 5880 5880 5880 5880 5881 5880 5880 5880 5880 5881 5880 5879 5877 5877 5876 5875 5873 5872 5871 5871 5870 5869 5869 5868 5867 5866 5866 5865 5864 5863 5863 5862 5861 5860 5859 5859 5858 5857 5857 5856 5856
5874 5875 5876 5877 5878 5878 5878 5878 5878 5878 5878 5879 5879 5878 5879 5876 5876 5875 5874 5872 5871 5870 5870 5869 5868 5868 5867 5866 5866 5865 5864 5863 5863 5862 5861 5860 5859 5858 5857 5857 5856 5856 5855 5855
5870 5871 5872 5874 5874 5875 5875 5876 5876 5876 5876 5877 5877 5877 5877 5875 5874 5873 5872 5871 5870 5869 5868 5868 5867 5866 5866 5865 5865 5864 5863 5862 5861 5860 5860 5859 5858 5857 5856 5856 5855 5855 5855 5854
5866 5867 5869 5870 5871 5872 5873 5874 5874 5874 5874 5875 5875 5874 5875 5873 5872 5871 5870 5870 5869 5868 5867 5866 5866 5865 5864 5864 5863 5862 5862 5861 5860 5859 5858 5857 5857 5856 5855 5855 5854 5854 5853 5853
5862 5864 5865 5866 5868 5869 5869 5871 5872 5873 5872 5872 5872 5872 5872 5871 5870 5869 5868 5868 5867 5866 5865 5865 5864 5863 5863 5862 5862 5861 5860 5860 5859 5858 5857 5856 5855 5855 5854 5853 5853 5853 5852 5852
5857 5859 5861 5862 5863 5865 5866 5866 5868 5868 5868 5869 5869 5870 5869 5868 5868 5867 5866 5866 5865 5864 5864 5863 5862 5862 5861 5860 5860 5859 5858 5858 5857 5856 5855 5855 5854 5853 5853 5852 5852 5851 5851 5851
5852 5854 5856 5857 5859 5860 5862 5862 5863 5864 5865 5866 5866 5867 5867 5866 5865 5865 5864 5863 5863 5862 5862 5861 5860 5859 5859 5858 5857 5857 5856 5856 5855 5854 5854 5853 5852 5852 5851 5850 5850 5850 5850 5850
5846 5849 5851 5852 5854 5855 5857 5858 5859 5860 5861 5862 5863 5865 5863 5863 5862 5862 5861 5861 5860 5860 5859 5858 5858 5857 5856 5856 5855 5854 5854 5853 5853 5852 5852 5851 5850 5850 5849 5849 5848 5848 5848 5848
5840 5843 5844 5847 5849 5850 5851 5853 5854 5856 5856 5857 5858 5862 5859 5859 5859 5858 5858 5858 5857 5857 5856 5855 5855 5854 5853 5853 5852 5852 5851 5851 5850 5850 5849 5848 5848 5847 5847 5846 5846 5846 5846 5846
5835 5837 5839 5840 5844 5845 5845 5847 5848 5850 5851 5852 5853 5857 5855 5855 5855 5854 5854 5854 5854 5853 5853 5852 5851 5851 5850 5849 5849 5848 5848 5847 5847 5846 5846 5845 5845 5845 5844 5844 5844 5844 5844 5844
5828 5830 5833 5836 5836 5838 5840 5841 5842 5844 5845 5846 5848 5850 5850 5850 5850 5850 5850 5850 5849 5849 5849 5848 5847 5846 5846 5845 5845 5844 5844 5843 5843 5843 5842 5842 5842 5841 5841 5841 5841 5841 5841 5842
5821 5823 5825 5827 5829 5831 5833 5835 5836 5838 5839 5841 5843 5843 5844 5845 5845 5845 5845 5845 5844 5844 5844 5843 5843 5842 5841 5841 5840 5840 5839 5839 5839 5839 5838 5838 5838 5838 5838 5838 5838 5838 5838 5839
5814 5816 5818 5820 5822 5824 5825 5828 5830 5831 5832 5834 5835 5837 5838 5838 5839 5839 5839 5839 5839 5839 5838 5838 5838 5837 5836 5836 5836 5835 5835 5834 5834 5834 5834 5834 5834 5834 5834 5834 5834 5835 5835 5835
5806 5809 5811 5813 5815 5816 5819 5822 5823 5824 5826 5827 5828 5831 5831 5831 5832 5833 5833 5833 5833 5833 5833 5833 5832 5832 5832 5831 5831 5830 5830 5830 5829 5829 5829 5829 5829 5829 5830 5830 5830 5830 5831 5831
5799 5801 5803 5805 5807 5808 5814 5814 5816 5817 5818 5820 5821 5822 5823 5824 5825 5826 5826 5827 5827 5827 5827 5827 5827 5827 5826 5826 5826 5825 5825 5824 5824 5824 5824 5824 5824 5824 5825 5825 5825 5826 5826 5827
5791 5793 5795 5797 5798 5801 5804 5806 5808 5809 5811 5813 5814 5815 5816 5817 5817 5819 5819 5820 5820 5821 5821 5821 5821 5821 5820 5820 5820 5820 5819 5819 5819 5819 5819 5819 5819 5819 5819 5819 5820 5820 5821 5821
5783 5785 5787 5788 5790 5793 5797 5798 5799 5802 5803 5805 5806 5807 5808 5809 5810 5812 5812 5812 5813 5814 5814 5814 5814 5814 5814 5814 5813 5813 5813 5813 5813 5813 5813 5813 5813 5813 5813 5813 5814 5814 5815 5815
5775 5776 5778 5780 5781 5784 5788 5790 5791 5794 5796 5797 5797 5798 5799 5800 5802 5804 5804 5805 5805 5806 5807 5807 5807 5807 5807 5807 5807 5807 5807 5807 5806 5806 5806 5806 5807 5807 5807 5807 5808 5808 5809 5809
5766 5768 5770 5771 5773 5778 5779 5781 5783 5785 5786 5787 5788 5790 5791 5792 5793 5794 5795 5796 5797 5798 5799 5799 5800 5800 5800 5800 5800 5800 5800 5800 5799 5800 5800 5800 5800 5800 5801 5801 5801 5802 5802 5803
5757 5760 5761 5764 5767 5768 5770 5771 5773 5775 5776 5778 5779 5781 5782 5783 5784 5786 5787 5788 5788 5789 5790 5791 5792 5792 5792 5792 5792 5793 5793 5792 5792 5793 5793 5793 5793 5794 5794 5794 5794 5795 5796 5796
5748 5749 5751 5754 5756 5758 5760 5761 5763 5765 5766 5768 5769 5771 5773 5774 5775 5777 5778 5779 5779 5780 5781 5782 5783 5784 5785 5785 5785 5785 5785 5785 5786 5786 5786 5786 5787 5787 5787 5787 5788 5788 5789 5789
5739 5740 5741 5743 5746 5747 5750 5751 5753 5755 5757 5758 5760 5761 5763 5764 5766 5767 5768 5769 5770 5771 5772 5773 5774 5776 5777 5777 5777 5778 5778 5778 5779 5779 5779 5779 5779 5780 5780 5780 5781 5781 5782 5782
5730 5731 5732 5734 5736 5738 5740 5742 5744 5745 5747 5748 5750 5752 5753 5754 5756 5757 5758 5759 5760 5761 5763 5764 5765 5767 5768 5768 5769 5769 5770 5770 5771 5771 5772 5772 5772 5773 5773 5773 5774 5774 5775 5775